Location: Unspecified
(48.5539°N, 71.6350°W)
Time: 09:05:24
(UTC-05:00)

ISS - Pass Details

Date: 29 January 2019
Orbit: 403 x 411 km, 51.6° (Epoch: 16 February)

Event Time Altitude Azimuth Distance (km) Brightness Sun altitude
Rises 21:41:46 0° 290° (WNW) 2,345 - -48.4°
Reaches altitude 10° 21:43:56 10° 283° (WNW) 1,482 - -48.7°
Maximum altitude 21:47:03 39° 213° (SSW) 634 - -49.1°
Drops below altitude 10° 21:50:10 10° 142° (SE) 1,477 - -49.6°
Sets 21:52:20 0° 135° (SE) 2,335 - -49.8°
